Tiempo cada hora Abaran

Hoy, 29 Octubre, Jueves

Tiempo Temperatura Precipitaciones Viento Presión Humedad
00:00 +15°C° 0 mm 1 mps 733 mmHg 73%
01:00 +14°C° 0 mm 1 mps 733 mmHg 73%
02:00 +14°C° 0 mm 1 mps 733 mmHg 73%
03:00 +14°C° 0 mm 2 mps 733 mmHg 74%
04:00 +14°C° 0 mm 1 mps 733 mmHg 76%
05:00 +13°C° 0 mm 1 mps 733 mmHg 78%
06:00 +13°C° 0 mm 1 mps 734 mmHg 80%
07:00 +15°C° 0 mm 1 mps 734 mmHg 72%
08:00 +16°C° 0 mm 1 mps 735 mmHg 64%
09:00 +19°C° 0 mm 1 mps 735 mmHg 57%
10:00 +20°C° 0 mm 1 mps 736 mmHg 53%
11:00 +22°C° 0 mm 1 mps 736 mmHg 49%
12:00 +23°C° 0 mm 2 mps 736 mmHg 45%
13:00 +23°C° 0 mm 2 mps 735 mmHg 45%
14:00 +22°C° 0 mm 3 mps 735 mmHg 44%
15:00 +24°C° 0 mm 3 mps 735 mmHg 44%
16:00 +21°C° 0 mm 2 mps 734 mmHg 51%
17:00 +19°C° 0 mm 2 mps 734 mmHg 58%
18:00 +18°C° 0 mm 1 mps 734 mmHg 65%
19:00 +16°C° 0 mm 1 mps 734 mmHg 69%
20:00 +16°C° 0 mm 1 mps 735 mmHg 73%
21:00 +14°C° 0 mm 0 mps 735 mmHg 77%
22:00 +13°C° 0 mm 0 mps 735 mmHg 79%
23:00 +13°C° 0 mm 0 mps 734 mmHg 81%

Mañana, 30 Octubre, Viernes

Tiempo Temperatura Precipitaciones Viento Presión Humedad
00:00 +12°C° 0 mm 0 mps 734 mmHg 83%
01:00 +12°C° 0 mm 0 mps 734 mmHg 83%
02:00 +12°C° 0 mm 0 mps 734 mmHg 84%
03:00 +11°C° 0 mm 0 mps 734 mmHg 84%
04:00 +11°C° 0 mm 0 mps 733 mmHg 84%
05:00 +11°C° 0 mm 0 mps 733 mmHg 83%
06:00 +11°C° 0 mm 0 mps 733 mmHg 83%
07:00 +13°C° 0 mm 0 mps 734 mmHg 72%
08:00 +16°C° 0 mm 0 mps 734 mmHg 61%
09:00 +18°C° 0 mm 0 mps 735 mmHg 51%
10:00 +21°C° 0 mm 1 mps 735 mmHg 45%
11:00 +23°C° 0 mm 1 mps 735 mmHg 39%
12:00 +24°C° 0 mm 2 mps 734 mmHg 33%
13:00 +25°C° 0 mm 2 mps 734 mmHg 33%
14:00 +25°C° 0 mm 3 mps 734 mmHg 32%
15:00 +25°C° 0 mm 4 mps 733 mmHg 32%
16:00 +22°C° 0 mm 3 mps 733 mmHg 41%
17:00 +20°C° 0 mm 2 mps 733 mmHg 50%
18:00 +18°C° 0 mm 1 mps 733 mmHg 59%
19:00 +18°C° 0 mm 1 mps 733 mmHg 63%
20:00 +16°C° 0 mm 1 mps 733 mmHg 67%
21:00 +14°C° 0 mm 0 mps 733 mmHg 70%
22:00 +13°C° 0 mm 0 mps 733 mmHg 71%
23:00 +13°C° 0 mm 0 mps 733 mmHg 72%

Pasado mañana, 31 Octubre, Sábado

Tiempo Temperatura Precipitaciones Viento Presión Humedad
00:00 +13°C° 0 mm 0 mps 733 mmHg 72%
01:00 +12°C° 0 mm 0 mps 732 mmHg 73%
02:00 +12°C° 0 mm 0 mps 732 mmHg 73%
03:00 +12°C° 0 mm 0 mps 732 mmHg 74%
04:00 +11°C° 0 mm 0 mps 732 mmHg 74%
05:00 +11°C° 0 mm 0 mps 732 mmHg 75%
06:00 +11°C° 0 mm 0 mps 732 mmHg 75%
07:00 +14°C° 0 mm 0 mps 733 mmHg 64%
08:00 +16°C° 0 mm 0 mps 733 mmHg 53%
09:00 +19°C° 0 mm 0 mps 734 mmHg 42%
10:00 +20°C° 0 mm 0 mps 733 mmHg 38%
11:00 +22°C° 0 mm 0 mps 733 mmHg 34%
12:00 +23°C° 0 mm 0 mps 733 mmHg 30%
13:00 +26°C° 0 mm 1 mps 733 mmHg 29%
14:00 +26°C° 0 mm 1 mps 733 mmHg 28%
15:00 +26°C° 0 mm 1 mps 732 mmHg 28%
16:00 +24°C° 0 mm 1 mps 732 mmHg 37%
17:00 +22°C° 0 mm 1 mps 732 mmHg 46%
18:00 +19°C° 0 mm 1 mps 732 mmHg 55%
19:00 +18°C° 0 mm 1 mps 732 mmHg 59%
20:00 +18°C° 0 mm 1 mps 732 mmHg 63%
21:00 +15°C° 0 mm 0 mps 733 mmHg 67%
22:00 +14°C° 0 mm 0 mps 732 mmHg 68%
23:00 +14°C° 0 mm 0 mps 732 mmHg 69%

1 Noviembre, Domingo

Tiempo Temperatura Precipitaciones Viento Presión Humedad
00:00 +14°C° 0 mm 0 mps 732 mmHg 69%
01:00 +14°C° 0 mm 0 mps 732 mmHg 68%
02:00 +14°C° 0 mm 0 mps 732 mmHg 67%
03:00 +14°C° 0 mm 0 mps 732 mmHg 66%
04:00 +14°C° 0 mm 1 mps 732 mmHg 66%
05:00 +14°C° 0 mm 1 mps 732 mmHg 66%
06:00 +14°C° 0 mm 1 mps 732 mmHg 66%
07:00 +16°C° 0 mm 1 mps 732 mmHg 57%
08:00 +20°C° 0 mm 1 mps 733 mmHg 47%
09:00 +22°C° 0 mm 1 mps 733 mmHg 38%
10:00 +24°C° 0 mm 1 mps 733 mmHg 35%
11:00 +25°C° 0 mm 1 mps 733 mmHg 33%
12:00 +26°C° 0 mm 1 mps 733 mmHg 30%
13:00 +27°C° 0 mm 1 mps 733 mmHg 29%
14:00 +27°C° 0 mm 1 mps 732 mmHg 29%
15:00 +27°C° 0 mm 1 mps 732 mmHg 28%
16:00 +25°C° 0 mm 1 mps 732 mmHg 35%
17:00 +23°C° 0 mm 1 mps 732 mmHg 43%
18:00 +20°C° 0 mm 1 mps 732 mmHg 50%
19:00 +20°C° 0 mm 1 mps 732 mmHg 54%
20:00 +19°C° 0 mm 1 mps 732 mmHg 57%
21:00 +16°C° 0 mm 0 mps 732 mmHg 61%
22:00 +16°C° 0 mm 0 mps 732 mmHg 62%
23:00 +15°C° 0 mm 0 mps 731 mmHg 64%

2 Noviembre, Lunes

Tiempo Temperatura Precipitaciones Viento Presión Humedad
00:00 +15°C° 0 mm 0 mps 731 mmHg 66%
01:00 +14°C° 0 mm 0 mps 731 mmHg 67%
02:00 +14°C° 0 mm 0 mps 731 mmHg 69%
03:00 +13°C° 0 mm 0 mps 730 mmHg 70%
04:00 +13°C° 0 mm 0 mps 730 mmHg 72%
05:00 +13°C° 0 mm 0 mps 730 mmHg 73%
06:00 +12°C° 0 mm 0 mps 730 mmHg 75%
07:00 +15°C° 0 mm 0 mps 731 mmHg 64%
08:00 +17°C° 0 mm 0 mps 731 mmHg 53%
09:00 +20°C° 0 mm 0 mps 732 mmHg 42%
10:00 +21°C° 0 mm 0 mps 731 mmHg 37%
11:00 +25°C° 0 mm 1 mps 731 mmHg 32%
12:00 +26°C° 0 mm 1 mps 731 mmHg 28%
13:00 +26°C° 0 mm 2 mps 731 mmHg 27%
14:00 +26°C° 0 mm 3 mps 731 mmHg 26%
15:00 +27°C° 0 mm 3 mps 730 mmHg 26%
16:00 +24°C° 0 mm 3 mps 730 mmHg 32%
17:00 +21°C° 0 mm 2 mps 730 mmHg 38%
18:00 +20°C° 0 mm 1 mps 730 mmHg 45%
19:00 +19°C° 0 mm 1 mps 730 mmHg 48%
20:00 +18°C° 0 mm 1 mps 730 mmHg 51%
21:00 +15°C° 0 mm 0 mps 730 mmHg 54%
22:00 +15°C° 0 mm 0 mps 730 mmHg 54%
23:00 +14°C° 0 mm 0 mps 730 mmHg 55%

3 Noviembre, Martes

Tiempo Temperatura Precipitaciones Viento Presión Humedad
00:00 +14°C° 0 mm 0 mps 730 mmHg 55%
01:00 +14°C° 0 mm 0 mps 729 mmHg 55%
02:00 +13°C° 0 mm 0 mps 729 mmHg 55%
03:00 +13°C° 0 mm 0 mps 729 mmHg 54%
04:00 +13°C° 0 mm 0 mps 729 mmHg 55%
05:00 +14°C° 0 mm 1 mps 729 mmHg 55%
06:00 +14°C° 0 mm 1 mps 729 mmHg 55%
07:00 +16°C° 0 mm 1 mps 729 mmHg 50%
08:00 +19°C° 0 mm 2 mps 730 mmHg 45%
09:00 +21°C° 0 mm 2 mps 730 mmHg 39%
10:00 +23°C° 0 mm 2 mps 730 mmHg 39%
11:00 +24°C° 0 mm 3 mps 730 mmHg 39%
12:00 +26°C° 0 mm 3 mps 730 mmHg 38%
13:00 +25°C° 0 mm 4 mps 730 mmHg 38%
14:00 +25°C° 0 mm 4 mps 730 mmHg 39%
15:00 +25°C° 0 mm 4 mps 730 mmHg 39%
16:00 +22°C° 0.3 mm 4 mps 730 mmHg 47%
17:00 +20°C° 0.3 mm 4 mps 730 mmHg 55%
18:00 +18°C° 0.3 mm 4 mps 730 mmHg 63%
19:00 +17°C° 0.5 mm 3 mps 730 mmHg 67%
20:00 +17°C° 0.5 mm 3 mps 730 mmHg 71%
21:00 +17°C° 0.5 mm 2 mps 730 mmHg 75%
22:00 +16°C° 0.5 mm 2 mps 730 mmHg 77%
23:00 +16°C° 0.5 mm 2 mps 730 mmHg 79%
Mostrar más

Necesitamos Su Consentimiento

Meteoprog y nuestros Proveedores de Servicios pueden almacenar y acceder a sus datos personales como cookies, identificadores de dispositivo u otras tecnologías similares de su dispositivo y procesar dichos datos para personalizar contenido y anuncios, además de ofrecer funciones de redes sociales y analizar el tráfico.

  • Almacenar y/o acceder a información en su dispositivo

    Se puede almacenar o acceder a cookies, identificadores de dispositivo u otra información de su dispositivo para los fines anteriormente indicados.

  • Anuncios y contenido personalizados, medición de anuncios y contenido, percepciones del público, y desarrollo de productos

    Los anuncios y el contenido pueden personalizarse en base a su perfil. Se pueden añadir más datos para personalizar mejor los anuncios y contenidos. Se puede medir el rendimiento de los anuncios y contenidos. Se puede obtener la percepción sobre el público que ha visto los anuncios y contenidos. Dichos datos pueden usarse para desarrollar o mejorar la experiencia del usuario, sistemas y software.

Al hacer clic en ‘Estoy De Acuerdo’ usted permitirá el uso de las cookies, identificadores de dispositivo, balizas web u otras tecnologías similares indicadas. Su configuración puede cambiarse desde el navegador de su dispositivo.

Para ciertos fines, los intereses legítimos pueden ser considerados por encima del consentimiento. Puede leer más sobre ello en nuestra Política de Privacidad y Cookies.